Location: *
(46.3500°N, 10.9000°E)
Time: 00:14:18
(UTC+00:00)

Vanguard 2 - Pass Details

Date: 21 April 2021
Orbit: 552 x 2938 km, 32.9° (Epoch: 12 May)

Event Time Altitude Azimuth Distance (km) Brightness Sun altitude
Rises 08:17:35 0° 188° (S) 6,746 12.5 39.3°
Reaches altitude 10° 08:25:23 10° 169° (SSE) 5,741 12.6 40.4°
Maximum altitude 08:33:12 15° 142° (SE) 5,154 12.9 41.6°
Drops below altitude 10° 08:40:22 10° 114° (ESE) 5,220 12.9 42.6°
Sets 08:46:38 0° 94° (E) 5,804 12.6 43.5°
